| time (UTC) | temp C | wind direction | speed KPH | gust KPH | rain 1hr cm | rain 24hr cm | rain mn cm | humidity % | barometer mb |
| 20260506132525 | 7 | 59 | 1.6 | 12.9 | 0.00 | 0.08 | 0.00 | 65 | 1013.0 |
| 20260506132025 | 6 | 61 | 0.0 | 12.9 | 0.00 | 0.08 | 0.00 | 65 | 1012.9 |
| 20260506131524 | 6 | 44 | 1.6 | 8.0 | 0.00 | 0.08 | 0.00 | 66 | 1012.8 |
| 20260506131025 | 6 | 69 | 0.0 | 12.9 | 0.00 | 0.08 | 0.00 | 65 | 1012.9 |
| 20260506130522 | 6 | 93 | 1.6 | 8.0 | 0.00 | 0.08 | 0.00 | 64 | 1012.7 |
| 20260506130022 | 6 | 300 | 1.6 | 8.0 | 0.00 | 0.08 | 0.00 | 65 | 1012.6 |
| 20260506125520 | 6 | 294 | 1.6 | 8.0 | 0.00 | 0.08 | 0.00 | 65 | 1012.3 |
| 20260506125019 | 6 | 59 | 0.0 | 9.7 | 0.00 | 0.08 | 0.00 | 66 | 1012.4 |
| 20260506124519 | 6 | 360 | 0.0 | 9.7 | 0.00 | 0.08 | 0.00 | 66 | 1012.4 |
| 20260506124019 | 6 | 32 | 1.6 | 8.0 | 0.00 | 0.08 | 0.00 | 66 | 1012.5 |
| 20260506123518 | 6 | 26 | 1.6 | 11.3 | 0.00 | 0.08 | 0.00 | 65 | 1012.3 |
| 20260506123018 | 6 | 59 | 1.6 | 11.3 | 0.00 | 0.08 | 0.00 | 67 | 1012.2 |
| 20260506122520 | 6 | 55 | 0.0 | 8.0 | 0.00 | 0.08 | 0.00 | 67 | 1012.1 |
| 20260506122016 | 6 | 349 | 0.0 | 9.7 | 0.00 | 0.08 | 0.00 | 66 | 1012.1 |
| 20260506121515 | 6 | 26 | 0.0 | 9.7 | 0.00 | 0.08 | 0.00 | 65 | 1012.1 |
| 20260506121015 | 6 | 10 | 0.0 | 6.4 | 0.00 | 0.08 | 0.00 | 64 | 1012.0 |
| 20260506120515 | 6 | 10 | 0.0 | 8.0 | 0.00 | 0.08 | 0.00 | 65 | 1012.0 |
| 20260506120016 | 6 | 56 | 0.0 | 8.0 | 0.00 | 0.08 | 0.00 | 66 | 1011.8 |
| 20260506115514 | 6 | 44 | 1.6 | 3.2 | 0.00 | 0.08 | 0.00 | 67 | 1011.5 |
| 20260506115013 | 6 | 50 | 0.0 | 4.8 | 0.00 | 0.08 | 0.00 | 65 | 1011.4 |
| 20260506114513 | 6 | 57 | 0.0 | 4.8 | 0.00 | 0.08 | 0.00 | 66 | 1011.5 |
| 20260506114011 | 6 | 61 | 0.0 | 4.8 | 0.00 | 0.08 | 0.00 | 66 | 1011.5 |
| 20260506113510 | 6 | 63 | 0.0 | 3.2 | 0.00 | 0.08 | 0.00 | 66 | 1011.4 |
| 20260506113009 | 6 | 360 | 0.0 | 1.6 | 0.00 | 0.08 | 0.00 | 66 | 1011.3 |
| 20260506112511 | 6 | 360 | 0.0 | 3.2 | 0.00 | 0.08 | 0.00 | 66 | 1011.3 |
| 20260506112008 | 6 | 360 | 0.0 | 3.2 | 0.00 | 0.08 | 0.00 | 66 | 1011.3 |
| 20260506111508 | 6 | 360 | 0.0 | 3.2 | 0.00 | 0.08 | 0.00 | 65 | 1011.2 |
| 20260506111008 | 6 | 360 | 0.0 | 6.4 | 0.00 | 0.08 | 0.00 | 65 | 1011.0 |
| 20260506110509 | 6 | 360 | 0.0 | 6.4 | 0.00 | 0.08 | 0.00 | 64 | 1011.0 |
| 20260506110006 | 6 | 360 | 0.0 | 1.6 | 0.00 | 0.08 | 0.00 | 64 | 1011.0 |
| 20260506105506 | 6 | 360 | 0.0 | 3.2 | 0.00 | 0.08 | 0.00 | 63 | 1010.8 |
| 20260506105007 | 6 | 360 | 0.0 | 3.2 | 0.00 | 0.08 | 0.00 | 64 | 1010.7 |
| 20260506104503 | 6 | 360 | 0.0 | 3.2 | 0.00 | 0.08 | 0.00 | 64 | 1010.6 |
| 20260506104002 | 6 | 360 | 0.0 | 4.8 | 0.00 | 0.08 | 0.00 | 65 | 1010.7 |
| 20260506103503 | 6 | 360 | 0.0 | 4.8 | 0.00 | 0.08 | 0.00 | 64 | 1010.7 |
| 20260506103001 | 6 | 360 | 0.0 | 4.8 | 0.00 | 0.08 | 0.00 | 64 | 1010.6 |
| 20260506102501 | 6 | 69 | 1.6 | 4.8 | 0.00 | 0.08 | 0.00 | 63 | 1010.5 |
| 20260506102102 | 6 | 360 | 0.0 | 3.2 | 0.00 | 0.08 | 0.00 | 64 | 1010.6 |
| 20260506101606 | 7 | 360 | 0.0 | 3.2 | 0.00 | 0.08 | 0.00 | 65 | 1010.4 |
| 20260506101059 | 7 | 69 | 0.0 | 3.2 | 0.00 | 0.08 | 0.00 | 66 | 1010.3 |
| 20260506100558 | 7 | 360 | 0.0 | 3.2 | 0.00 | 0.08 | 0.00 | 65 | 1010.3 |
| 20260506100058 | 7 | 360 | 0.0 | 4.8 | 0.00 | 0.08 | 0.00 | 65 | 1010.2 |
| 20260506095559 | 7 | 360 | 0.0 | 6.4 | 0.00 | 0.08 | 0.00 | 65 | 1010.1 |
| 20260506095057 | 7 | 360 | 1.6 | 6.4 | 0.00 | 0.08 | 0.00 | 65 | 1010.1 |
| 20260506094621 | 7 | 360 | 0.0 | 8.0 | 0.00 | 0.08 | 0.00 | 65 | 1010.0 |
| 20260506094054 | 7 | 71 | 1.6 | 11.3 | 0.00 | 0.08 | 0.00 | 65 | 1010.0 |
| 20260506093553 | 7 | 68 | 1.6 | 11.3 | 0.00 | 0.08 | 0.00 | 66 | 1010.0 |
| 20260506093056 | 7 | 19 | 0.0 | 6.4 | 0.00 | 0.08 | 0.00 | 67 | 1010.0 |
| 20260506092552 | 7 | 9 | 0.0 | 8.0 | 0.00 | 0.08 | 0.00 | 67 | 1010.1 |
| 20260506092051 | 7 | 52 | 0.0 | 9.7 | 0.00 | 0.08 | 0.00 | 66 | 1009.9 |
| 20260506091550 | 8 | 341 | 0.0 | 9.7 | 0.00 | 0.08 | 0.00 | 66 | 1009.9 |
| 20260506091049 | 8 | 64 | 0.0 | 6.4 | 0.00 | 0.08 | 0.00 | 66 | 1009.7 |
| 20260506090548 | 8 | 64 | 0.0 | 16.1 | 0.00 | 0.08 | 0.00 | 65 | 1009.6 |
| 20260506090048 | 8 | 62 | 3.2 | 16.1 | 0.00 | 0.08 | 0.00 | 65 | 1009.5 |
| 20260506085548 | 8 | 309 | 0.0 | 3.2 | 0.00 | 0.08 | 0.00 | 64 | 1009.8 |
| 20260506085047 | 8 | 309 | 0.0 | 1.6 | 0.00 | 0.08 | 0.00 | 64 | 1009.7 |
| 20260506084548 | 8 | 309 | 0.0 | 1.6 | 0.00 | 0.08 | 0.00 | 63 | 1009.6 |
| 20260506084048 | 8 | 309 | 0.0 | 3.2 | 0.00 | 0.08 | 0.00 | 64 | 1009.6 |
| 20260506083545 | 8 | 309 | 0.0 | 3.2 | 0.00 | 0.08 | 0.00 | 63 | 1009.5 |
| 20260506083045 | 8 | 309 | 0.0 | 6.4 | 0.00 | 0.08 | 0.00 | 64 | 1009.6 |
| 20260506082548 | 8 | 309 | 0.0 | 6.4 | 0.00 | 0.08 | 0.00 | 63 | 1009.5 |
| 20260506082043 | 8 | 308 | 0.0 | 3.2 | 0.00 | 0.08 | 0.00 | 62 | 1009.4 |
| 20260506081543 | 8 | 308 | 0.0 | 4.8 | 0.00 | 0.08 | 0.00 | 62 | 1009.6 |
| 20260506081043 | 8 | 308 | 0.0 | 4.8 | 0.00 | 0.08 | 0.00 | 61 | 1009.6 |
| 20260506080542 | 8 | 307 | 0.0 | 4.8 | 0.00 | 0.08 | 0.00 | 61 | 1009.7 |
| 20260506073043 | 8 | 306 | 0.0 | 4.8 | 0.00 | 0.08 | 0.00 | 61 | 1009.3 |
| 20260506072539 | 8 | 306 | 0.0 | 3.2 | 0.00 | 0.08 | 0.00 | 61 | 1009.3 |
| 20260506072038 | 8 | 306 | 0.0 | 3.2 | 0.00 | 0.08 | 0.00 | 60 | 1009.2 |
| 20260506071537 | 8 | 306 | 0.0 | 8.0 | 0.00 | 0.08 | 0.00 | 59 | 1009.3 |
| 20260506071036 | 8 | 306 | 1.6 | 8.0 | 0.00 | 0.08 | 0.00 | 58 | 1009.5 |
| 20260506070536 | 8 | 288 | 1.6 | 9.7 | 0.00 | 0.08 | 0.00 | 59 | 1009.3 |
| 20260506062031 | 9 | 290 | 1.6 | 11.3 | 0.00 | 0.08 | 0.00 | 56 | 1009.6 |
| 20260506061535 | 9 | 335 | 1.6 | 9.7 | 0.00 | 0.08 | 0.00 | 56 | 1009.5 |
| 20260506061032 | 9 | 296 | 1.6 | 14.5 | 0.00 | 0.08 | 0.00 | 55 | 1009.6 |
| 20260506060529 | 9 | 292 | 4.8 | 14.5 | 0.00 | 0.08 | 0.00 | 55 | 1009.5 |
| 20260506051025 | 10 | 275 | 1.6 | 9.7 | 0.00 | 0.10 | 0.00 | 56 | 1009.3 |
| 20260506050528 | 10 | 271 | 3.2 | 9.7 | 0.00 | 0.10 | 0.00 | 55 | 1009.4 |
| 20260506045023 | 10 | 288 | 3.2 | 8.0 | 0.00 | 0.13 | 0.00 | 55 | 1009.2 |
| 20260506044529 | 10 | 286 | 1.6 | 8.0 | 0.00 | 0.13 | 0.00 | 55 | 1009.2 |
| 20260506044021 | 10 | 297 | 1.6 | 8.0 | 0.00 | 0.13 | 0.00 | 55 | 1009.2 |
| 20260506043523 | 10 | 298 | 3.2 | 8.0 | 0.00 | 0.13 | 0.00 | 55 | 1009.2 |
| 20260506043021 | 10 | 279 | 1.6 | 9.7 | 0.00 | 0.13 | 0.00 | 55 | 1009.1 |
| 20260506042521 | 10 | 275 | 1.6 | 9.7 | 0.00 | 0.13 | 0.00 | 54 | 1009.1 |
| 20260506042023 | 10 | 279 | 1.6 | 8.0 | 0.00 | 0.13 | 0.00 | 54 | 1009.1 |
| 20260506041521 | 10 | 282 | 4.8 | 11.3 | 0.00 | 0.13 | 0.00 | 54 | 1009.1 |
| 20260506041019 | 10 | 287 | 1.6 | 6.4 | 0.00 | 0.13 | 0.00 | 54 | 1009.2 |
| 20260506040519 | 10 | 286 | 3.2 | 11.3 | 0.00 | 0.13 | 0.00 | 54 | 1009.1 |
| 20260506040042 | 10 | 289 | 3.2 | 11.3 | 0.00 | 0.13 | 0.00 | 53 | 1009.2 |
| 20260506035517 | 10 | 279 | 3.2 | 9.7 | 0.00 | 0.13 | 0.13 | 53 | 1009.3 |
| 20260506035017 | 10 | 287 | 3.2 | 8.0 | 0.00 | 0.13 | 0.13 | 53 | 1009.4 |
| 20260506034516 | 10 | 291 | 3.2 | 6.4 | 0.00 | 0.13 | 0.13 | 53 | 1009.3 |
| 20260506034015 | 10 | 284 | 3.2 | 6.4 | 0.00 | 0.13 | 0.13 | 53 | 1009.4 |
| 20260506033515 | 10 | 296 | 3.2 | 4.8 | 0.00 | 0.13 | 0.13 | 53 | 1009.4 |
| 20260506033015 | 10 | 297 | 1.6 | 4.8 | 0.00 | 0.13 | 0.13 | 53 | 1009.4 |
| 20260506032515 | 10 | 297 | 1.6 | 4.8 | 0.00 | 0.13 | 0.13 | 53 | 1009.4 |
| 20260506032016 | 10 | 297 | 1.6 | 8.0 | 0.00 | 0.13 | 0.13 | 52 | 1009.4 |
| 20260506031530 | 10 | 301 | 3.2 | 8.0 | 0.00 | 0.13 | 0.13 | 52 | 1009.3 |
| 20260506031018 | 10 | 284 | 3.2 | 9.7 | 0.00 | 0.13 | 0.13 | 52 | 1009.3 |
| 20260506030513 | 10 | 283 | 0.0 | 6.4 | 0.00 | 0.13 | 0.13 | 52 | 1009.2 |
| 20260506030013 | 10 | 282 | 1.6 | 6.4 | 0.00 | 0.13 | 0.13 | 51 | 1009.3 |
| 20260506025513 | 10 | 283 | 3.2 | 6.4 | 0.00 | 0.13 | 0.13 | 50 | 1009.4 |
| 20260506025014 | 10 | 282 | 1.6 | 6.4 | 0.00 | 0.13 | 0.13 | 51 | 1009.3 |
| 20260506024518 | 10 | 280 | 3.2 | 9.7 | 0.00 | 0.13 | 0.13 | 50 | 1009.5 |
| 20260506024012 | 10 | 269 | 4.8 | 9.7 | 0.00 | 0.13 | 0.13 | 50 | 1009.5 |
| 20260506023512 | 10 | 289 | 0.0 | 8.0 | 0.00 | 0.13 | 0.13 | 50 | 1009.3 |
| 20260506023012 | 10 | 286 | 1.6 | 8.0 | 0.00 | 0.13 | 0.13 | 50 | 1009.3 |
| 20260506022511 | 10 | 300 | 3.2 | 12.9 | 0.00 | 0.13 | 0.13 | 49 | 1009.3 |
| 20260506022010 | 10 | 284 | 3.2 | 11.3 | 0.00 | 0.13 | 0.13 | 49 | 1009.5 |
| 20260506021512 | 10 | 294 | 1.6 | 12.9 | 0.00 | 0.13 | 0.13 | 50 | 1009.6 |
| 20260506021012 | 10 | 277 | 4.8 | 12.9 | 0.00 | 0.13 | 0.13 | 50 | 1009.5 |
| 20260506020512 | 10 | 279 | 4.8 | 12.9 | 0.00 | 0.13 | 0.13 | 50 | 1009.4 |
| 20260506020009 | 11 | 277 | 3.2 | 9.7 | 0.00 | 0.13 | 0.13 | 52 | 1009.1 |
| 20260506015508 | 11 | 280 | 1.6 | 6.4 | 0.00 | 0.13 | 0.13 | 52 | 1009.1 |
| 20260506015007 | 11 | 280 | 1.6 | 3.2 | 0.00 | 0.13 | 0.13 | 52 | 1009.1 |
| 20260506014511 | 11 | 280 | 0.0 | 8.0 | 0.00 | 0.13 | 0.13 | 54 | 1008.9 |
| 20260506014005 | 11 | 280 | 3.2 | 8.0 | 0.00 | 0.13 | 0.13 | 50 | 1008.9 |
| 20260506013509 | 11 | 281 | 3.2 | 6.4 | 0.00 | 0.13 | 0.13 | 50 | 1009.0 |
| 20260506013005 | 11 | 281 | 1.6 | 6.4 | 0.00 | 0.13 | 0.13 | 50 | 1008.9 |
| 20260506012504 | 11 | 281 | 1.6 | 8.0 | 0.00 | 0.13 | 0.13 | 50 | 1008.7 |
| 20260506012005 | 11 | 271 | 1.6 | 11.3 | 0.00 | 0.13 | 0.13 | 50 | 1008.7 |
| 20260506011504 | 11 | 280 | 4.8 | 11.3 | 0.00 | 0.13 | 0.13 | 50 | 1008.7 |
| 20260506011005 | 11 | 278 | 3.2 | 8.0 | 0.00 | 0.13 | 0.13 | 51 | 1008.7 |
| 20260506010504 | 11 | 261 | 1.6 | 9.7 | 0.00 | 0.13 | 0.13 | 52 | 1008.8 |
| 20260506010008 | 11 | 261 | 3.2 | 9.7 | 0.00 | 0.13 | 0.13 | 51 | 1008.7 |
| 20260506005503 | 11 | 283 | 3.2 | 8.0 | 0.00 | 0.25 | 0.13 | 51 | 1008.7 |
| 20260506005004 | 11 | 281 | 3.2 | 8.0 | 0.00 | 0.25 | 0.13 | 51 | 1008.8 |
| 20260506004505 | 11 | 280 | 1.6 | 11.3 | 0.00 | 0.25 | 0.13 | 51 | 1008.7 |
| 20260506004004 | 11 | 277 | 3.2 | 11.3 | 0.00 | 0.25 | 0.13 | 51 | 1008.7 |
| 20260506003503 | 11 | 288 | 4.8 | 11.3 | 0.00 | 0.25 | 0.13 | 51 | 1008.7 |
| 20260506003101 | 11 | 259 | 3.2 | 9.7 | 0.00 | 0.25 | 0.13 | 53 | 1008.5 |
| 20260506002600 | 11 | 287 | 1.6 | 8.0 | 0.00 | 0.25 | 0.13 | 55 | 1008.5 |
| 20260506002100 | 11 | 287 | 3.2 | 11.3 | 0.00 | 0.25 | 0.13 | 54 | 1008.6 |
| 20260506001559 | 11 | 242 | 4.8 | 9.7 | 0.00 | 0.25 | 0.13 | 55 | 1008.5 |
| 20260506001059 | 11 | 296 | 1.6 | 14.5 | 0.00 | 0.25 | 0.13 | 55 | 1008.4 |
| 20260506000600 | 11 | 292 | 1.6 | 14.5 | 0.00 | 0.25 | 0.13 | 57 | 1008.4 |
| 20260505235559 | 12 | 284 | 3.2 | 8.0 | 0.00 | 0.28 | 0.13 | 56 | 1008.2 |
| 20260505235058 | 12 | 285 | 3.2 | 12.9 | 0.00 | 0.28 | 0.13 | 56 | 1008.0 |
| 20260505234604 | 12 | 275 | 4.8 | 12.9 | 0.00 | 0.28 | 0.13 | 56 | 1007.9 |
| 20260505234056 | 12 | 269 | 4.8 | 11.3 | 0.00 | 0.28 | 0.13 | 58 | 1007.8 |
| 20260505233556 | 12 | 273 | 4.8 | 11.3 | 0.00 | 0.28 | 0.13 | 58 | 1007.9 |
| 20260505233109 | 12 | 260 | 3.2 | 12.9 | 0.00 | 0.28 | 0.13 | 59 | 1007.7 |
| 20260505232555 | 12 | 274 | 4.8 | 12.9 | 0.00 | 0.28 | 0.13 | 60 | 1007.8 |
| 20260505232058 | 12 | 283 | 4.8 | 8.0 | 0.00 | 0.28 | 0.13 | 60 | 1007.8 |
| 20260505231602 | 12 | 269 | 3.2 | 9.7 | 0.00 | 0.28 | 0.13 | 61 | 1007.8 |
| 20260505231059 | 12 | 227 | 1.6 | 8.0 | 0.00 | 0.28 | 0.13 | 62 | 1007.8 |
| 20260505230554 | 12 | 298 | 3.2 | 12.9 | 0.00 | 0.28 | 0.13 | 62 | 1007.8 |
| 20260505230055 | 12 | 311 | 4.8 | 12.9 | 0.00 | 0.28 | 0.13 | 61 | 1007.8 |
| 20260505225554 | 12 | 285 | 3.2 | 12.9 | 0.00 | 0.28 | 0.13 | 61 | 1008.0 |
| 20260505225054 | 12 | 280 | 4.8 | 12.9 | 0.00 | 0.28 | 0.13 | 62 | 1007.9 |
| 20260505224553 | 12 | 273 | 6.4 | 14.5 | 0.00 | 0.28 | 0.13 | 62 | 1008.0 |
| 20260505224053 | 12 | 279 | 4.8 | 14.5 | 0.00 | 0.28 | 0.13 | 62 | 1008.0 |
| 20260505223552 | 12 | 284 | 3.2 | 14.5 | 0.00 | 0.28 | 0.13 | 62 | 1008.0 |
| 20260505223055 | 12 | 290 | 6.4 | 14.5 | 0.00 | 0.28 | 0.13 | 62 | 1008.0 |
| 20260505222552 | 12 | 261 | 3.2 | 12.9 | 0.00 | 0.28 | 0.13 | 63 | 1008.0 |
| 20260505222051 | 12 | 265 | 4.8 | 11.3 | 0.00 | 0.28 | 0.13 | 63 | 1007.9 |
| 20260505221552 | 12 | 260 | 4.8 | 12.9 | 0.00 | 0.28 | 0.13 | 63 | 1008.0 |
| 20260505221052 | 12 | 267 | 6.4 | 12.9 | 0.00 | 0.28 | 0.13 | 64 | 1007.8 |
| 20260505220552 | 12 | 258 | 4.8 | 9.7 | 0.00 | 0.28 | 0.13 | 66 | 1007.9 |
| 20260505220051 | 12 | 304 | 3.2 | 9.7 | 0.00 | 0.28 | 0.13 | 68 | 1008.1 |
| 20260505215550 | 12 | 232 | 3.2 | 16.1 | 0.00 | 0.28 | 0.13 | 68 | 1008.0 |
| 20260505215050 | 12 | 264 | 8.0 | 16.1 | 0.00 | 0.28 | 0.13 | 68 | 1008.0 |
| 20260505214554 | 12 | 267 | 1.6 | 14.5 | 0.00 | 0.28 | 0.13 | 69 | 1008.0 |
| 20260505214049 | 12 | 242 | 3.2 | 11.3 | 0.00 | 0.28 | 0.13 | 70 | 1007.8 |
| 20260505213550 | 12 | 248 | 3.2 | 8.0 | 0.00 | 0.28 | 0.13 | 71 | 1007.8 |
| 20260505213049 | 12 | 240 | 3.2 | 8.0 | 0.00 | 0.28 | 0.13 | 71 | 1007.7 |
| 20260505212549 | 12 | 247 | 3.2 | 9.7 | 0.00 | 0.28 | 0.13 | 71 | 1007.7 |
| 20260505212049 | 12 | 227 | 3.2 | 14.5 | 0.00 | 0.28 | 0.13 | 72 | 1007.7 |
| 20260505211556 | 12 | 243 | 6.4 | 14.5 | 0.00 | 0.28 | 0.13 | 71 | 1007.8 |
| 20260505211051 | 12 | 232 | 3.2 | 14.5 | 0.00 | 0.28 | 0.13 | 72 | 1007.8 |
| 20260505210548 | 12 | 180 | 3.2 | 14.5 | 0.00 | 0.28 | 0.13 | 73 | 1007.8 |
| 20260505210048 | 12 | 171 | 3.2 | 11.3 | 0.00 | 0.28 | 0.13 | 73 | 1007.9 |
| 20260505205548 | 12 | 240 | 3.2 | 11.3 | 0.00 | 0.28 | 0.13 | 73 | 1007.9 |
| 20260505205051 | 11 | 221 | 4.8 | 11.3 | 0.00 | 0.28 | 0.13 | 73 | 1007.9 |
| 20260505204548 | 11 | 225 | 1.6 | 12.9 | 0.00 | 0.28 | 0.13 | 74 | 1008.0 |
| 20260505204048 | 11 | 217 | 4.8 | 12.9 | 0.00 | 0.28 | 0.13 | 73 | 1008.1 |
| 20260505203550 | 11 | 240 | 3.2 | 14.5 | 0.00 | 0.28 | 0.13 | 73 | 1007.9 |
| 20260505203049 | 11 | 233 | 3.2 | 11.3 | 0.00 | 0.28 | 0.13 | 74 | 1008.0 |
| 20260505202549 | 11 | 227 | 4.8 | 12.9 | 0.00 | 0.28 | 0.13 | 74 | 1007.9 |
| 20260505202049 | 11 | 183 | 3.2 | 12.9 | 0.00 | 0.28 | 0.13 | 74 | 1008.0 |
| 20260505201551 | 11 | 233 | 1.6 | 8.0 | 0.00 | 0.28 | 0.13 | 74 | 1007.9 |
| 20260505201046 | 11 | 244 | 4.8 | 11.3 | 0.00 | 0.28 | 0.13 | 74 | 1007.9 |
| 20260505200547 | 11 | 225 | 6.4 | 11.3 | 0.00 | 0.28 | 0.13 | 74 | 1008.0 |
| 20260505200049 | 11 | 232 | 6.4 | 14.5 | 0.00 | 0.28 | 0.13 | 75 | 1008.0 |
| 20260505195546 | 11 | 185 | 4.8 | 14.5 | 0.00 | 0.28 | 0.13 | 75 | 1008.0 |
| 20260505195046 | 11 | 173 | 4.8 | 14.5 | 0.00 | 0.28 | 0.13 | 75 | 1007.9 |
| 20260505194556 | 11 | 173 | 6.4 | 14.5 | 0.00 | 0.28 | 0.13 | 75 | 1008.0 |
| 20260505194045 | 11 | 189 | 6.4 | 16.1 | 0.00 | 0.28 | 0.13 | 76 | 1008.1 |
| 20260505193547 | 11 | 182 | 4.8 | 17.7 | 0.00 | 0.28 | 0.13 | 76 | 1008.2 |
| 20260505193044 | 11 | 188 | 4.8 | 14.5 | 0.00 | 0.28 | 0.13 | 76 | 1008.1 |
| 20260505192544 | 11 | 185 | 6.4 | 11.3 | 0.00 | 0.28 | 0.13 | 76 | 1008.2 |
| 20260505192044 | 11 | 161 | 3.2 | 12.9 | 0.00 | 0.28 | 0.13 | 77 | 1008.2 |
| 20260505191544 | 11 | 207 | 3.2 | 14.5 | 0.00 | 0.28 | 0.13 | 77 | 1008.2 |
| 20260505191042 | 11 | 188 | 6.4 | 16.1 | 0.00 | 0.28 | 0.13 | 77 | 1008.3 |
| 20260505190541 | 11 | 173 | 4.8 | 16.1 | 0.00 | 0.28 | 0.13 | 77 | 1008.3 |
| 20260505190044 | 11 | 202 | 6.4 | 12.9 | 0.00 | 0.28 | 0.13 | 77 | 1008.2 |
| 20260505185540 | 11 | 180 | 4.8 | 12.9 | 0.00 | 0.28 | 0.13 | 77 | 1008.1 |
| 20260505185040 | 11 | 177 | 4.8 | 16.1 | 0.00 | 0.28 | 0.13 | 77 | 1008.0 |
| 20260505184540 | 11 | 232 | 4.8 | 16.1 | 0.00 | 0.28 | 0.13 | 78 | 1008.0 |
| 20260505184039 | 11 | 186 | 6.4 | 11.3 | 0.00 | 0.28 | 0.13 | 78 | 1007.9 |
| 20260505183540 | 11 | 186 | 3.2 | 14.5 | 0.00 | 0.28 | 0.13 | 79 | 1007.8 |
| 20260505183040 | 11 | 222 | 8.0 | 14.5 | 0.00 | 0.28 | 0.13 | 78 | 1007.8 |
| 20260505182537 | 11 | 165 | 8.0 | 14.5 | 0.00 | 0.28 | 0.13 | 79 | 1007.7 |
| 20260505182039 | 11 | 238 | 6.4 | 14.5 | 0.00 | 0.28 | 0.13 | 79 | 1007.5 |
| 20260505181537 | 11 | 242 | 3.2 | 14.5 | 0.00 | 0.28 | 0.13 | 79 | 1007.5 |
| 20260505181036 | 11 | 155 | 4.8 | 14.5 | 0.00 | 0.28 | 0.13 | 78 | 1007.5 |
| 20260505180538 | 11 | 218 | 6.4 | 14.5 | 0.00 | 0.28 | 0.13 | 78 | 1007.4 |
| 20260505180039 | 11 | 178 | 4.8 | 11.3 | 0.00 | 0.28 | 0.13 | 80 | 1007.3 |
| 20260505175534 | 11 | 165 | 4.8 | 11.3 | 0.03 | 0.28 | 0.13 | 80 | 1007.3 |
| 20260505175035 | 11 | 190 | 4.8 | 11.3 | 0.03 | 0.28 | 0.13 | 80 | 1007.1 |
| 20260505174540 | 11 | 233 | 4.8 | 14.5 | 0.03 | 0.28 | 0.13 | 79 | 1007.2 |
| 20260505174034 | 11 | 182 | 4.8 | 14.5 | 0.03 | 0.28 | 0.13 | 78 | 1007.1 |
| 20260505173534 | 11 | 200 | 3.2 | 14.5 | 0.05 | 0.28 | 0.13 | 80 | 1007.0 |
| 20260505173035 | 11 | 360 | 8.0 | 16.1 | 0.05 | 0.28 | 0.13 | 80 | 1006.9 |
| 20260505172532 | 11 | 193 | 4.8 | 11.3 | 0.05 | 0.28 | 0.13 | 82 | 1006.9 |
| 20260505172031 | 11 | 200 | 4.8 | 8.0 | 0.08 | 0.28 | 0.13 | 81 | 1007.0 |
| 20260505171534 | 11 | 206 | 1.6 | 12.9 | 0.08 | 0.28 | 0.13 | 81 | 1007.2 |
| 20260505171034 | 11 | 195 | 4.8 | 12.9 | 0.08 | 0.28 | 0.13 | 81 | 1007.2 |
| 20260505170529 | 11 | 192 | 3.2 | 9.7 | 0.08 | 0.28 | 0.13 | 79 | 1007.2 |
| 20260505170028 | 11 | 229 | 4.8 | 11.3 | 0.05 | 0.25 | 0.10 | 79 | 1007.2 |
| 20260505165528 | 11 | 179 | 4.8 | 12.9 | 0.05 | 0.25 | 0.10 | 77 | 1007.4 |
| 20260505165028 | 11 | 260 | 3.2 | 14.5 | 0.05 | 0.25 | 0.10 | 78 | 1007.5 |
| 20260505164528 | 11 | 261 | 6.4 | 14.5 | 0.05 | 0.25 | 0.10 | 77 | 1007.5 |
| 20260505164030 | 11 | 235 | 3.2 | 14.5 | 0.03 | 0.23 | 0.08 | 76 | 1007.6 |
| 20260505163528 | 11 | 262 | 6.4 | 16.1 | 0.03 | 0.23 | 0.08 | 74 | 1007.5 |
| 20260505163024 | 11 | 277 | 4.8 | 17.7 | 0.03 | 0.23 | 0.08 | 72 | 1007.3 |
| 20260505162523 | 11 | 238 | 6.4 | 19.3 | 0.03 | 0.23 | 0.08 | 71 | 1007.4 |
| 20260505162022 | 12 | 263 | 6.4 | 19.3 | 0.00 | 0.20 | 0.05 | 70 | 1007.4 |
| 20260505161520 | 12 | 282 | 9.7 | 19.3 | 0.00 | 0.20 | 0.05 | 70 | 1007.5 |
| 20260505161022 | 12 | 319 | 4.8 | 19.3 | 0.00 | 0.20 | 0.05 | 69 | 1007.5 |
| 20260505160518 | 13 | 319 | 4.8 | 19.3 | 0.00 | 0.20 | 0.05 | 68 | 1007.3 |
| 20260505153012 | 13 | 294 | 3.2 | 8.0 | 0.00 | 0.20 | 0.05 | 64 | 1006.6 |
| 20260505152511 | 13 | 255 | 1.6 | 11.3 | 0.00 | 0.20 | 0.05 | 64 | 1006.4 |
| 20260505152017 | 13 | 271 | 1.6 | 12.9 | 0.00 | 0.20 | 0.05 | 65 | 1006.4 |
| 20260505151510 | 13 | 309 | 4.8 | 12.9 | 0.00 | 0.20 | 0.05 | 64 | 1006.4 |
| 20260505151010 | 13 | 279 | 1.6 | 6.4 | 0.00 | 0.20 | 0.05 | 64 | 1006.1 |
| 20260505150511 | 14 | 297 | 0.0 | 11.3 | 0.00 | 0.20 | 0.05 | 66 | 1006.1 |
| 20260505140505 | 13 | 321 | 3.2 | 16.1 | 0.00 | 0.20 | 0.05 | 68 | 1005.8 |